Location: Stull Observatory
(42.2506°N, 77.7903°W)
Time: 01:26:46
(UTC-04:00)

ISS - All Passes

Search period start: 29 June 2016 00:00
Search period end: 09 July 2016 00:00
Orbit: 402 x 403 km, 51.6° (Epoch: 28 June)

Date Brightness Start Highest point End Pass type
(mag) Time Alt. Az. Time Alt. Az. Time Alt. Az.
29 Jun - 09:18:08 10° SW 09:21:23 81° SE 09:24:40 10° ENE daylight
29 Jun - 10:55:29 10° WNW 10:58:09 22° NNW 11:00:49 10° NE daylight
29 Jun - 12:33:20 10° NW 12:35:27 16° N 12:37:34 10° NE daylight
29 Jun - 14:09:42 10° NW 14:12:39 30° NNE 14:15:35 10° E daylight
29 Jun - 15:46:03 10° WNW 15:49:10 42° SW 15:52:16 10° SSE daylight
30 Jun - 08:25:36 10° SSW 08:28:42 41° SE 08:31:47 10° ENE daylight
30 Jun - 10:02:15 10° W 10:05:12 30° NNW 10:08:09 10° NE daylight
30 Jun - 11:40:17 10° NW 11:42:23 16° N 11:44:30 10° NE daylight
30 Jun - 13:17:03 10° NW 13:19:42 22° NNE 13:22:20 10° ENE daylight
30 Jun - 14:53:11 10° WNW 14:56:28 83° SW 14:59:44 10° SE daylight
01 Jul - 07:33:30 10° S 07:36:03 22° SE 07:38:39 10° E daylight
01 Jul - 09:09:09 10° WSW 09:12:19 47° NNW 09:15:30 10° NE daylight
01 Jul - 10:47:03 10° NW 10:49:21 17° N 10:51:38 10° NE daylight
01 Jul - 12:24:20 10° NW 12:26:42 18° N 12:29:03 10° ENE daylight
01 Jul - 14:00:27 10° NW 14:03:40 54° NNE 14:06:53 10° ESE daylight
01 Jul - 15:37:30 10° W 15:39:51 18° SW 15:42:12 10° S daylight
02 Jul - 06:42:21 10° SSE 06:43:31 11° SE 06:44:41 10° ESE daylight
02 Jul - 08:16:15 10° WSW 08:19:30 84° NNW 08:22:46 10° NE daylight
02 Jul - 09:53:46 10° WNW 09:56:19 21° NNW 09:58:54 10° NE daylight
02 Jul - 11:31:30 10° NW 11:33:38 16° N 11:35:47 10° NE daylight
02 Jul - 13:07:46 10° NW 13:10:48 34° NNE 13:13:49 10° E daylight
02 Jul - 14:44:14 10° WNW 14:47:14 34° SW 14:50:14 10° SSE daylight
03 Jul - 07:23:35 10° SW 07:26:45 50° SE 07:29:56 10° ENE daylight
03 Jul - 09:00:28 10° W 09:03:20 27° NNW 09:06:13 10° NE daylight
03 Jul - 10:38:29 10° NW 10:40:34 16° N 10:42:40 10° NE daylight
03 Jul - 12:15:07 10° NW 12:17:51 24° NNE 12:20:35 10° ENE daylight
03 Jul - 13:51:18 10° WNW 13:54:32 68° SW 13:57:47 10° SE daylight
04 Jul - 06:31:18 10° SSW 06:34:05 26° SE 06:36:53 10° ENE daylight
04 Jul - 08:07:18 10° W 08:10:25 41° NNW 08:13:32 10° NE daylight
04 Jul - 09:45:16 10° NW 09:47:29 17° N 09:49:43 10° NE daylight
04 Jul - 11:22:24 10° NW 11:24:50 19° NNE 11:27:17 10° ENE daylight
04 Jul - 12:58:30 10° NW 13:01:45 64° NNE 13:05:00 10° ESE daylight
04 Jul - 14:35:50 10° W 14:37:52 15° SW 14:39:52 10° S daylight
05 Jul - 05:39:42 10° SSE 05:41:30 14° SE 05:43:16 10° E daylight
05 Jul - 07:14:18 10° WSW 07:17:33 71° NNW 07:20:50 10° NE daylight
05 Jul - 08:51:57 10° WNW 08:54:26 20° NNW 08:56:55 10° NE daylight
05 Jul - 10:29:35 10° NW 10:31:46 16° N 10:33:58 10° NE daylight
05 Jul - 12:05:47 10° NW 12:08:53 38° NNE 12:11:58 10° E daylight
05 Jul - 13:42:22 10° WNW 13:45:15 29° SW 13:48:07 10° SSE daylight
06 Jul - 06:21:33 10° SW 06:24:46 61° SE 06:28:00 10° ENE daylight
06 Jul - 07:58:39 10° WNW 08:01:26 25° NNW 08:04:13 10° NE daylight
06 Jul - 09:36:36 10° NW 09:38:41 16° N 09:40:47 10° NE daylight
06 Jul - 11:13:06 10° NW 11:15:56 26° NNE 11:18:45 10° E daylight
06 Jul - 12:49:21 10° WNW 12:52:33 56° SW 12:55:45 10° SE daylight
07 Jul - 05:29:08 10° SSW 05:32:03 31° SE 05:35:00 10° ENE daylight
07 Jul - 07:05:25 10° W 07:08:27 36° NNW 07:11:31 10° NE daylight
07 Jul - 08:43:25 10° NW 08:45:35 16° N 08:47:45 10° NE daylight
07 Jul - 10:20:24 10° NW 10:22:56 20° NNE 10:25:26 10° ENE daylight
07 Jul - 11:56:30 10° NW 11:59:47 77° NE 12:03:02 10° ESE daylight
07 Jul - 13:34:15 10° WSW 13:35:48 13° SW 13:37:20 10° SSW daylight
08 Jul - 04:37:15 10° S 04:39:25 17° SE 04:41:36 10° E visible
08 Jul - 06:12:20 10° WSW 06:15:34 59° NNW 06:18:48 10° NE daylight
08 Jul - 07:50:06 10° WNW 07:52:30 18° NNW 07:54:54 10° NE daylight
08 Jul - 09:27:35 10° NW 09:29:51 17° N 09:32:06 10° NE daylight
08 Jul - 11:03:45 10° NW 11:06:54 43° NNE 11:10:03 10° ESE daylight
08 Jul - 12:40:30 10° W 12:43:12 24° SW 12:45:53 10° S daylight
